SB KEPS @ AMSAT $ORB06326.O Orbital Elements 06326.OSCAR
HR AMSAT ORBITAL ELEMENTS FOR OSCAR SATELLITES FROM WA5QGD FORT WORTH,TX November 22, 2006 Send SUBSCRIBE KEPS/UNSUBSCRIBE KEPS to [email protected] only BID: ORB06326.O TO ALL RADIO AMATEURS BT
Satellite: AO-07 Catalog number: 07530 Epoch time: 06324.68701763 Element set: 0735 Inclination: 101.5480 deg RA of node: 003.5885 deg Eccentricity: 0.0011900 Arg of perigee: 301.9750 deg Mean anomaly: 058.0163 deg Mean motion: 12.53571715 rev/day Decay rate: -2.8e-07 rev/day^2 Epoch rev: 46499 Checksum: 288
Satellite: UO-11 Catalog number: 14781 Epoch time: 06325.90464329 Element set: 231 Inclination: 098.2028 deg RA of node: 339.4572 deg Eccentricity: 0.0010005 Arg of perigee: 115.7755 deg Mean anomaly: 244.4474 deg Mean motion: 14.79487944 rev/day Decay rate: 3.20e-06 rev/day^2 Epoch rev: 21908 Checksum: 302
Satellite: RS-10/11 Catalog number: 18129 Epoch time: 06325.76434625 Element set: 150 Inclination: 082.9276 deg RA of node: 211.5903 deg Eccentricity: 0.0012700 Arg of perigee: 021.7850 deg Mean anomaly: 338.3841 deg Mean motion: 13.72780774 rev/day Decay rate: 2.2e-07 rev/day^2 Epoch rev: 97277 Checksum: 294
Satellite: RS-15 Catalog number: 23439 Epoch time: 06324.55699050 Element set: 0006 Inclination: 064.8210 deg RA of node: 344.3283 deg Eccentricity: 0.0165487 Arg of perigee: 227.2321 deg Mean anomaly: 131.4581 deg Mean motion: 11.27551817 rev/day Decay rate: -3.9e-07 rev/day^2 Epoch rev: 49017 Checksum: 291
Satellite: FO-29 Catalog number: 24278 Epoch time: 06325.91236815 Element set: 370 Inclination: 098.5223 deg RA of node: 308.7008 deg Eccentricity: 0.0349779 Arg of perigee: 260.6650 deg Mean anomaly: 095.4792 deg Mean motion: 13.52925729 rev/day Decay rate: 5.8e-07 rev/day^2 Epoch rev: 50687 Checksum: 345
Satellite: SO-33 Catalog number: 25509 Epoch time: 06324.67880400 Element set: 0798 Inclination: 031.4334 deg RA of node: 324.5929 deg Eccentricity: 0.0355224 Arg of perigee: 044.4942 deg Mean anomaly: 318.3646 deg Mean motion: 14.28137359 rev/day Decay rate: 1.52e-06 rev/day^2 Epoch rev: 42142 Checksum: 304
Satellite: VO-52 Catalog number: 28650 Epoch time: 06326.33642855 Element set: 485 Inclination: 097.8573 deg RA of node: 036.4344 deg Eccentricity: 0.0026860 Arg of perigee: 204.9750 deg Mean anomaly: 155.0120 deg Mean motion: 14.81211680 rev/day Decay rate: 1.2e-07 rev/day^2 Epoch rev: 8379 Checksum: 297
/EX SB KEPS @ AMSAT $ORB06326.D Orbital Elements 06326.MICROS
HR AMSAT ORBITAL ELEMENTS FOR THE MICROSATS FROM WA5QGD FORT WORTH,TX November 22, 2006 Send SUBSCRIBE KEPS/UNSUBSCRIBE KEPS to [email protected] only BID: ORB06326.D TO ALL RADIO AMATEURS BT
Satellite: AO-16 Catalog number: 20439 Epoch time: 06325.60238738 Element set: 899 Inclination: 098.1893 deg RA of node: 326.7141 deg Eccentricity: 0.0011937 Arg of perigee: 084.8529 deg Mean anomaly: 275.4026 deg Mean motion: 14.31740498 rev/day Decay rate: 3.3e-07 rev/day^2 Epoch rev: 87884 Checksum: 342
Satellite: LO-19 Catalog number: 20442 Epoch time: 06326.44436208 Element set: 832 Inclination: 098.1829 deg RA of node: 337.0257 deg Eccentricity: 0.0012903 Arg of perigee: 082.3775 deg Mean anomaly: 277.8884 deg Mean motion: 14.31982798 rev/day Decay rate: 6.4e-07 rev/day^2 Epoch rev: 87910 Checksum: 336
Satellite: AO-27 Catalog number: 22825 Epoch time: 06325.90028487 Element set: 550 Inclination: 098.3029 deg RA of node: 300.1473 deg Eccentricity: 0.0008613 Arg of perigee: 149.5338 deg Mean anomaly: 210.6363 deg Mean motion: 14.29190646 rev/day Decay rate: 9.0e-08 rev/day^2 Epoch rev: 68588 Checksum: 311
Satellite: IO-26 Catalog number: 22826 Epoch time: 06325.98317985 Element set: 242 Inclination: 098.2970 deg RA of node: 301.3801 deg Eccentricity: 0.0009129 Arg of perigee: 146.9702 deg Mean anomaly: 213.2050 deg Mean motion: 14.29435361 rev/day Decay rate: 3.0e-07 rev/day^2 Epoch rev: 68597 Checksum: 303
Satellite: PO-28 Catalog number: 22829 Epoch time: 06324.50110134 Element set: 0527 Inclination: 098.2860 deg RA of node: 301.1612 deg Eccentricity: 0.0010409 Arg of perigee: 127.6554 deg Mean anomaly: 232.5566 deg Mean motion: 14.30132120 rev/day Decay rate: 2.3e-07 rev/day^2 Epoch rev: 68598 Checksum: 266
Satellite: GO-32 Catalog number: 25397 Epoch time: 06326.17299657 Element set: 163 Inclination: 098.4467 deg RA of node: 017.1108 deg Eccentricity: 0.0001969 Arg of perigee: 098.5018 deg Mean anomaly: 261.6378 deg Mean motion: 14.23115300 rev/day Decay rate: 7.2e-07 rev/day^2 Epoch rev: 43471 Checksum: 308
Satellite: MO-46 Catalog number: 26548 Epoch time: 06324.89360775 Element set: 0653 Inclination: 064.5548 deg RA of node: 107.0201 deg Eccentricity: 0.0038163 Arg of perigee: 224.9428 deg Mean anomaly: 134.8607 deg Mean motion: 14.83051963 rev/day Decay rate: 3.46e-06 rev/day^2 Epoch rev: 33265 Checksum: 315
Satellite: NO-44 Catalog number: 26931 Epoch time: 06325.98720491 Element set: 454 Inclination: 067.0526 deg RA of node: 321.2175 deg Eccentricity: 0.0004855 Arg of perigee: 263.3478 deg Mean anomaly: 096.7068 deg Mean motion: 14.29462837 rev/day Decay rate: 2.42e-06 rev/day^2 Epoch rev: 26848 Checksum: 328
Satellite: SO-50 Catalog number: 27607 Epoch time: 06324.57983182 Element set: 0175 Inclination: 064.5598 deg RA of node: 358.3487 deg Eccentricity: 0.0034938 Arg of perigee: 078.9103 deg Mean anomaly: 281.5969 deg Mean motion: 14.71197005 rev/day Decay rate: 2.31e-06 rev/day^2 Epoch rev: 21043 Checksum: 329
Satellite: CO-55 Catalog number: 27844 Epoch time: 06325.59497179 Element set: 898 Inclination: 098.7210 deg RA of node: 331.7336 deg Eccentricity: 0.0009829 Arg of perigee: 334.8183 deg Mean anomaly: 025.2511 deg Mean motion: 14.20472148 rev/day Decay rate: 1.05e-06 rev/day^2 Epoch rev: 17600 Checksum: 317
Satellite: CO-57 Catalog number: 27848 Epoch time: 06324.53273626 Element set: 0863 Inclination: 098.7201 deg RA of node: 329.9631 deg Eccentricity: 0.0009681 Arg of perigee: 340.9855 deg Mean anomaly: 019.0963 deg Mean motion: 14.20296722 rev/day Decay rate: 8.9e-07 rev/day^2 Epoch rev: 17583 Checksum: 340
Satellite: AO-51 Catalog number: 28375 Epoch time: 06326.16643135 Element set: 681 Inclination: 098.1434 deg RA of node: 010.8302 deg Eccentricity: 0.0084883 Arg of perigee: 089.1253 deg Mean anomaly: 271.9662 deg Mean motion: 14.40542993 rev/day Decay rate: 4.5e-07 rev/day^2 Epoch rev: 12590 Checksum: 305
Satellite: CO-56 Catalog number: 28941 Epoch time: 06325.83410640 Element set: 265 Inclination: 098.1602 deg RA of node: 359.9247 deg Eccentricity: 0.0257067 Arg of perigee: 282.5271 deg Mean anomaly: 074.7313 deg Mean motion: 15.30858274 rev/day Decay rate: 1.4797e-04 rev/day^2 Epoch rev: 4161 Checksum: 325
Satellite: HO-59 Catalog number: 29484 Epoch time: 06326.06659561 Element set: 75 Inclination: 098.3142 deg RA of node: 341.7409 deg Eccentricity: 0.0263453 Arg of perigee: 279.9450 deg Mean anomaly: 077.1826 deg Mean motion: 15.35293256 rev/day Decay rate: 3.3682e-04 rev/day^2 Epoch rev: 913 Checksum: 337
/EX SB KEPS @ AMSAT $ORB06326.W Orbital Elements 06326.WEATHER
HR AMSAT ORBITAL ELEMENTS FOR WEATHER SATELLITES FROM WA5QGD FORT WORTH,TX November 22, 2006 Send SUBSCRIBE KEPS/UNSUBSCRIBE KEPS to [email protected] only BID: ORB06326.W TO ALL RADIO AMATEURS BT
Satellite: NOAA-10 Catalog number: 16969 Epoch time: 06326.50473160 Element set: 435 Inclination: 098.7559 deg RA of node: 338.4595 deg Eccentricity: 0.0013122 Arg of perigee: 051.4543 deg Mean anomaly: 308.7831 deg Mean motion: 14.27309880 rev/day Decay rate: 2.0e-07 rev/day^2 Epoch rev: 4974 Checksum: 307
Satellite: NOAA-11 Catalog number: 19531 Epoch time: 06326.27833752 Element set: 395 Inclination: 098.8228 deg RA of node: 052.9499 deg Eccentricity: 0.0011006 Arg of perigee: 259.6200 deg Mean anomaly: 100.3715 deg Mean motion: 14.14826463 rev/day Decay rate: 1.7e-07 rev/day^2 Epoch rev: 93689 Checksum: 309
Satellite: NOAA-12 Catalog number: 21263 Epoch time: 06326.24447436 Element set: 890 Inclination: 098.7421 deg RA of node: 318.9608 deg Eccentricity: 0.0012782 Arg of perigee: 352.2350 deg Mean anomaly: 007.8643 deg Mean motion: 14.25515665 rev/day Decay rate: 5.8e-07 rev/day^2 Epoch rev: 80676 Checksum: 310
Satellite: MET-3/5 Catalog number: 21655 Epoch time: 06326.23112157 Element set: 188 Inclination: 082.5546 deg RA of node: 149.1606 deg Eccentricity: 0.0013737 Arg of perigee: 010.2979 deg Mean anomaly: 349.8424 deg Mean motion: 13.17008916 rev/day Decay rate: 5.1e-07 rev/day^2 Epoch rev: 73416 Checksum: 297
Satellite: MET-2/21 Catalog number: 22782 Epoch time: 06326.18622107 Element set: 675 Inclination: 082.5489 deg RA of node: 206.1108 deg Eccentricity: 0.0023821 Arg of perigee: 096.0962 deg Mean anomaly: 264.2923 deg Mean motion: 13.83611385 rev/day Decay rate: 5.4e-07 rev/day^2 Epoch rev: 66789 Checksum: 313
Satellite: OKEAN-4 Catalog number: 23317 Epoch time: 06324.75102489 Element set: 0110 Inclination: 082.5359 deg RA of node: 130.9855 deg Eccentricity: 0.0021185 Arg of perigee: 216.3954 deg Mean anomaly: 143.5778 deg Mean motion: 14.82426277 rev/day Decay rate: 2.75e-06 rev/day^2 Epoch rev: 65317 Checksum: 307
Satellite: NOAA-14 Catalog number: 23455 Epoch time: 06326.34410955 Element set: 387 Inclination: 099.0189 deg RA of node: 026.1496 deg Eccentricity: 0.0008948 Arg of perigee: 328.3407 deg Mean anomaly: 031.7217 deg Mean motion: 14.13679715 rev/day Decay rate: 4.8e-07 rev/day^2 Epoch rev: 61341 Checksum: 313
Satellite: SICH-1 Catalog number: 23657 Epoch time: 06326.06734989 Element set: 914 Inclination: 082.5270 deg RA of node: 270.6444 deg Eccentricity: 0.0023123 Arg of perigee: 200.8175 deg Mean anomaly: 159.2072 deg Mean motion: 14.81416296 rev/day Decay rate: 1.67e-06 rev/day^2 Epoch rev: 60536 Checksum: 298
